Location: El Bakhil
(32.7726°N, 5.5387°W)
Time: 21:33:03
(UTC+00:00)

N. Korean satellite - Pass Details

Date: 08 December 2021
Orbit: 447 x 490 km, 97.3° (Epoch: 27 January)

Event Time Altitude Azimuth Distance (km) Brightness Sun altitude
Rises 06:07:19 0° 356° (N) 2,451 9.9 -13.4°
Reaches altitude 10° 06:09:35 10° 342° (NNW) 1,576 8.8 -13.0°
Maximum altitude 06:12:22 24° 287° (WNW) 966 7.4 -12.4°
Drops below altitude 10° 06:15:08 10° 231° (SW) 1,574 8.9 -11.9°
Sets 06:17:24 0° 217° (SW) 2,447 10.0 -11.4°
